| time (UTC) | temp F | wind direction | speed knots | gust knots | rain 1hr in | rain 24hr in | rain mn in | humidity % | barometer mb |
| 20260510161118 | 58 | 70 | 1.7 | 2.6 | 0.00 | 0.00 | 0.01 | 92 | 1013.7 |
| 20260510160620 | 58 | 226 | 3.5 | 5.2 | 0.00 | 0.00 | 0.01 | 92 | 1014.0 |
| 20260510160119 | 58 | 129 | 5.2 | 7.8 | 0.00 | 0.00 | 0.01 | 91 | 1014.0 |
| 20260510155617 | 58 | 94 | 2.6 | 5.2 | 0.00 | 0.00 | 0.01 | 92 | 1013.7 |
| 20260510155116 | 57 | 320 | 0.9 | 1.7 | 0.00 | 0.00 | 0.01 | 94 | 1014.0 |
| 20260510154615 | 56 | 347 | 0.9 | 0.9 | 0.00 | 0.00 | 0.01 | 96 | 1014.0 |
| 20260510154116 | 55 | 109 | 2.6 | 4.3 | 0.00 | 0.00 | 0.01 | 96 | 1014.0 |
| 20260510153645 | 55 | 138 | 3.5 | 5.2 | 0.00 | 0.00 | 0.01 | 96 | 1014.0 |
| 20260510153145 | 55 | 322 | 1.7 | 1.7 | 0.00 | 0.00 | 0.01 | 97 | 1014.0 |
| 20260510152644 | 55 | 134 | 2.6 | 5.2 | 0.00 | 0.00 | 0.01 | 97 | 1014.0 |
| 20260510152145 | 55 | 210 | 3.5 | 7.0 | 0.00 | 0.00 | 0.01 | 98 | 1013.7 |
| 20260510151644 | 54 | 40 | 2.6 | 4.3 | 0.00 | 0.00 | 0.01 | 99 | 1013.7 |
| 20260510151143 | 53 | 23 | 1.7 | 2.6 | 0.00 | 0.00 | 0.01 | 99 | 1013.3 |
| 20260510150643 | 53 | 148 | 5.2 | 7.8 | 0.00 | 0.00 | 0.01 | 99 | 1013.5 |
| 20260510150144 | 52 | 98 | 2.6 | 5.2 | 0.00 | 0.00 | 0.01 | 99 | 1013.3 |
| 20260510145643 | 52 | 96 | 2.6 | 4.3 | 0.00 | 0.00 | 0.01 | 99 | 1013.3 |
| 20260510145142 | 52 | 77 | 3.5 | 4.3 | 0.00 | 0.00 | 0.01 | 99 | 1013.7 |
| 20260510144647 | 51 | 81 | 2.6 | 4.3 | 0.00 | 0.00 | 0.01 | 99 | 1013.7 |
| 20260510144145 | 51 | 125 | 2.6 | 4.3 | 0.00 | 0.00 | 0.01 | 99 | 1013.7 |
| 20260510143642 | 51 | 93 | 2.6 | 5.2 | 0.00 | 0.00 | 0.01 | 99 | 1013.5 |
| 20260510143141 | 51 | 29 | 0.9 | 2.6 | 0.00 | 0.00 | 0.01 | 99 | 1013.7 |
| 20260510142640 | 50 | 97 | 3.5 | 5.2 | 0.00 | 0.00 | 0.01 | 99 | 1013.7 |
| 20260510142140 | 51 | 138 | 4.3 | 7.0 | 0.00 | 0.00 | 0.01 | 99 | 1013.7 |
| 20260510141641 | 50 | 177 | 1.7 | 2.6 | 0.00 | 0.00 | 0.01 | 99 | 1013.7 |
| 20260510141140 | 50 | 128 | 3.5 | 7.0 | 0.00 | 0.00 | 0.01 | 99 | 1013.3 |
| 20260510140639 | 50 | 265 | 2.6 | 2.6 | 0.00 | 0.00 | 0.01 | 99 | 1013.3 |
| 20260510140140 | 51 | 166 | 3.5 | 4.3 | 0.00 | 0.00 | 0.01 | 99 | 1013.5 |
| 20260510135639 | 50 | 149 | 4.3 | 5.2 | 0.00 | 0.00 | 0.01 | 99 | 1013.3 |
| 20260510135140 | 50 | 112 | 3.5 | 4.3 | 0.00 | 0.00 | 0.01 | 99 | 1013.3 |
| 20260510134639 | 50 | 18 | 1.7 | 2.6 | 0.00 | 0.00 | 0.01 | 99 | 1013.7 |
| 20260510134138 | 50 | 203 | 2.6 | 4.3 | 0.00 | 0.00 | 0.01 | 99 | 1013.3 |
| 20260510133739 | 50 | 141 | 2.6 | 4.3 | 0.00 | 0.00 | 0.01 | 99 | 1013.3 |
| 20260510133137 | 50 | 133 | 5.2 | 7.8 | 0.00 | 0.00 | 0.01 | 99 | 1013.7 |
| 20260510132638 | 50 | 324 | 0.9 | 0.9 | 0.00 | 0.00 | 0.01 | 99 | 1013.7 |
| 20260510132137 | 50 | 110 | 4.3 | 5.2 | 0.00 | 0.00 | 0.01 | 99 | 1013.7 |
| 20260510131636 | 50 | 129 | 4.3 | 6.1 | 0.00 | 0.00 | 0.01 | 99 | 1013.7 |
| 20260510131135 | 50 | 145 | 2.6 | 4.3 | 0.00 | 0.00 | 0.01 | 99 | 1013.7 |
| 20260510130137 | 50 | 209 | 4.3 | 6.1 | 0.00 | 0.00 | 0.01 | 99 | 1013.5 |
| 20260510125635 | 50 | 201 | 4.3 | 5.2 | 0.00 | 0.00 | 0.01 | 99 | 1013.3 |
| 20260510125134 | 49 | 163 | 6.1 | 7.8 | 0.00 | 0.00 | 0.01 | 99 | 1013.3 |
| 20260510124635 | 49 | 170 | 3.5 | 5.2 | 0.00 | 0.00 | 0.01 | 99 | 1013.3 |
| 20260510124236 | 50 | 147 | 5.2 | 7.0 | 0.00 | 0.00 | 0.01 | 99 | 1013.5 |
| 20260510123634 | 49 | 158 | 4.3 | 5.2 | 0.00 | 0.00 | 0.01 | 99 | 1013.7 |
| 20260510123133 | 49 | 270 | 2.6 | 4.3 | 0.00 | 0.00 | 0.01 | 99 | 1013.3 |
| 20260510122732 | 49 | 165 | 5.2 | 7.8 | 0.00 | 0.00 | 0.01 | 99 | 1013.3 |
| 20260510122134 | 49 | 114 | 3.5 | 5.2 | 0.00 | 0.00 | 0.01 | 99 | 1013.3 |
| 20260510121132 | 49 | 158 | 4.3 | 6.1 | 0.00 | 0.00 | 0.01 | 99 | 1013.3 |
| 20260510120631 | 49 | 163 | 3.5 | 4.3 | 0.00 | 0.00 | 0.01 | 99 | 1013.3 |
| 20260510120134 | 49 | 163 | 5.2 | 6.1 | 0.00 | 0.00 | 0.01 | 99 | 1013.3 |
| 20260510115631 | 49 | 144 | 4.3 | 7.0 | 0.00 | 0.00 | 0.01 | 99 | 1013.3 |
| 20260510115131 | 48 | 220 | 3.5 | 5.2 | 0.00 | 0.00 | 0.01 | 99 | 1013.3 |
| 20260510114131 | 48 | 37 | 1.7 | 2.6 | 0.00 | 0.00 | 0.01 | 99 | 1013.3 |
| 20260510113631 | 48 | 22 | 1.7 | 2.6 | 0.00 | 0.00 | 0.01 | 99 | 1013.3 |
| 20260510113132 | 48 | 136 | 3.5 | 6.1 | 0.00 | 0.00 | 0.01 | 99 | 1013.3 |
| 20260510112733 | 48 | 104 | 2.6 | 5.2 | 0.00 | 0.00 | 0.01 | 99 | 1013.3 |
| 20260510112129 | 48 | 143 | 4.3 | 5.2 | 0.00 | 0.00 | 0.01 | 99 | 1013.3 |
| 20260510111628 | 48 | 29 | 1.7 | 2.6 | 0.00 | 0.00 | 0.01 | 99 | 1013.3 |
| 20260510111130 | 48 | 102 | 2.6 | 5.2 | 0.00 | 0.00 | 0.01 | 99 | 1013.1 |
| 20260510110627 | 48 | 109 | 2.6 | 4.3 | 0.00 | 0.00 | 0.01 | 99 | 1013.0 |
| 20260510110130 | 48 | 317 | 2.6 | 4.3 | 0.00 | 0.00 | 0.01 | 99 | 1013.0 |
| 20260510105627 | 48 | 200 | 4.3 | 6.1 | 0.00 | 0.00 | 0.01 | 99 | 1013.0 |
| 20260510105127 | 48 | 115 | 7.8 | 7.8 | 0.00 | 0.00 | 0.01 | 99 | 1012.6 |
| 20260510104629 | 48 | 316 | 2.6 | 2.6 | 0.00 | 0.00 | 0.01 | 99 | 1012.6 |
| 20260510104127 | 48 | 312 | 1.7 | 1.7 | 0.00 | 0.00 | 0.01 | 99 | 1012.6 |
| 20260510103626 | 48 | 150 | 4.3 | 6.1 | 0.00 | 0.00 | 0.01 | 99 | 1012.6 |
| 20260510103128 | 48 | 62 | 2.6 | 2.6 | 0.00 | 0.00 | 0.01 | 99 | 1012.6 |
| 20260510102626 | 48 | 239 | 2.6 | 4.3 | 0.00 | 0.00 | 0.01 | 99 | 1012.3 |
| 20260510102126 | 48 | 154 | 2.6 | 5.2 | 0.00 | 0.00 | 0.01 | 99 | 1012.3 |
| 20260510101626 | 48 | 349 | 1.7 | 5.2 | 0.00 | 0.00 | 0.01 | 99 | 1012.3 |
| 20260510101124 | 48 | 164 | 5.2 | 9.6 | 0.00 | 0.00 | 0.01 | 99 | 1011.9 |
| 20260510100623 | 48 | 238 | 3.5 | 6.1 | 0.00 | 0.00 | 0.01 | 99 | 1011.7 |
| 20260510100225 | 48 | 124 | 4.3 | 7.8 | 0.00 | 0.00 | 0.01 | 99 | 1011.6 |
| 20260510095625 | 48 | 28 | 2.6 | 4.3 | 0.00 | 0.00 | 0.01 | 99 | 1011.9 |
| 20260510095223 | 48 | 158 | 4.3 | 6.1 | 0.00 | 0.00 | 0.01 | 99 | 1011.6 |
| 20260510094622 | 48 | 163 | 4.3 | 6.1 | 0.00 | 0.00 | 0.01 | 99 | 1011.6 |
| 20260510094121 | 48 | 282 | 3.5 | 5.2 | 0.00 | 0.00 | 0.01 | 99 | 1011.6 |
| 20260510093622 | 48 | 135 | 2.6 | 4.3 | 0.00 | 0.00 | 0.01 | 99 | 1011.7 |
| 20260510093123 | 48 | 186 | 3.5 | 5.2 | 0.00 | 0.00 | 0.01 | 99 | 1011.7 |
| 20260510092622 | 48 | 140 | 5.2 | 6.1 | 0.00 | 0.00 | 0.01 | 99 | 1011.6 |
| 20260510092120 | 48 | 296 | 1.7 | 2.6 | 0.00 | 0.00 | 0.01 | 99 | 1011.6 |
| 20260510091621 | 48 | 136 | 3.5 | 4.3 | 0.00 | 0.00 | 0.01 | 99 | 1011.4 |
| 20260510091120 | 48 | 215 | 3.5 | 7.0 | 0.00 | 0.00 | 0.01 | 99 | 1011.6 |
| 20260510090619 | 48 | 156 | 1.7 | 5.2 | 0.00 | 0.00 | 0.01 | 99 | 1011.6 |
| 20260510090121 | 48 | 5 | 1.7 | 2.6 | 0.00 | 0.00 | 0.01 | 99 | 1011.6 |
| 20260510085119 | 48 | 185 | 5.2 | 7.0 | 0.00 | 0.00 | 0.01 | 99 | 1011.2 |
| 20260510084620 | 48 | 42 | 1.7 | 4.3 | 0.00 | 0.00 | 0.01 | 99 | 1011.6 |
| 20260510084117 | 48 | 118 | 2.6 | 5.2 | 0.00 | 0.00 | 0.01 | 99 | 1011.9 |
| 20260510083616 | 48 | 135 | 3.5 | 6.1 | 0.00 | 0.00 | 0.01 | 99 | 1011.9 |
| 20260510083118 | 48 | 319 | 0.9 | 2.6 | 0.00 | 0.00 | 0.01 | 99 | 1011.9 |
| 20260510082617 | 48 | 343 | 0.0 | 0.9 | 0.00 | 0.00 | 0.01 | 99 | 1011.9 |
| 20260510082118 | 48 | 227 | 2.6 | 2.6 | 0.00 | 0.00 | 0.01 | 99 | 1012.3 |
| 20260510081617 | 48 | 123 | 2.6 | 4.3 | 0.00 | 0.00 | 0.01 | 99 | 1012.3 |
| 20260510081145 | 48 | 58 | 2.6 | 4.3 | 0.00 | 0.00 | 0.01 | 99 | 1012.3 |
| 20260510080646 | 48 | 107 | 3.5 | 4.3 | 0.00 | 0.00 | 0.01 | 99 | 1011.9 |
| 20260510080145 | 48 | 8 | 1.7 | 2.6 | 0.00 | 0.00 | 0.01 | 99 | 1011.9 |
| 20260510075645 | 48 | 8 | 0.9 | 1.7 | 0.00 | 0.00 | 0.01 | 99 | 1011.9 |
| 20260510075144 | 48 | 340 | 1.7 | 1.7 | 0.00 | 0.00 | 0.01 | 99 | 1012.3 |
| 20260510074645 | 48 | 354 | 1.7 | 1.7 | 0.00 | 0.00 | 0.01 | 99 | 1012.3 |
| 20260510074144 | 48 | 21 | 1.7 | 2.6 | 0.00 | 0.00 | 0.01 | 99 | 1011.9 |
| 20260510073744 | 48 | 39 | 2.6 | 4.3 | 0.00 | 0.00 | 0.01 | 99 | 1011.9 |
| 20260510073143 | 48 | 306 | 1.7 | 1.7 | 0.00 | 0.00 | 0.01 | 99 | 1011.9 |
| 20260510072644 | 48 | 28 | 1.7 | 2.6 | 0.00 | 0.00 | 0.01 | 99 | 1011.9 |
| 20260510072143 | 48 | 314 | 0.9 | 1.7 | 0.00 | 0.00 | 0.01 | 99 | 1011.9 |
| 20260510071642 | 48 | 204 | 0.9 | 1.7 | 0.00 | 0.00 | 0.01 | 99 | 1011.9 |
| 20260510071144 | 48 | 316 | 0.0 | 0.9 | 0.00 | 0.00 | 0.01 | 99 | 1011.9 |
| 20260510070141 | 48 | 2 | 1.7 | 1.7 | 0.00 | 0.00 | 0.01 | 99 | 1011.6 |
| 20260510065741 | 48 | 325 | 1.7 | 2.6 | 0.00 | 0.00 | 0.01 | 99 | 1011.9 |
| 20260510065140 | 48 | 330 | 0.9 | 0.9 | 0.00 | 0.00 | 0.01 | 99 | 1011.9 |
| 20260510064741 | 48 | 17 | 1.7 | 2.6 | 0.00 | 0.00 | 0.01 | 99 | 1011.9 |
| 20260510063639 | 48 | 359 | 0.9 | 1.7 | 0.00 | 0.00 | 0.01 | 99 | 1011.7 |
| 20260510063138 | 48 | 5 | 2.6 | 2.6 | 0.00 | 0.00 | 0.01 | 99 | 1011.9 |
| 20260510062639 | 48 | 7 | 1.7 | 1.7 | 0.00 | 0.00 | 0.01 | 99 | 1011.9 |
| 20260510062139 | 48 | 261 | 2.6 | 4.3 | 0.00 | 0.00 | 0.01 | 99 | 1011.9 |
| 20260510061638 | 48 | 352 | 0.9 | 0.9 | 0.00 | 0.00 | 0.01 | 99 | 1012.1 |
| 20260510061137 | 48 | 297 | 0.9 | 1.7 | 0.00 | 0.00 | 0.01 | 99 | 1011.9 |
| 20260510060636 | 48 | 28 | 1.7 | 1.7 | 0.00 | 0.00 | 0.01 | 99 | 1011.9 |
| 20260510060137 | 48 | 210 | 1.7 | 4.3 | 0.00 | 0.00 | 0.01 | 99 | 1011.9 |
| 20260510055638 | 48 | 331 | 1.7 | 1.7 | 0.00 | 0.00 | 0.01 | 99 | 1012.3 |
| 20260510055136 | 48 | 332 | 1.7 | 2.6 | 0.00 | 0.00 | 0.01 | 99 | 1011.9 |
| 20260510054637 | 48 | 356 | 0.9 | 1.7 | 0.00 | 0.00 | 0.01 | 99 | 1011.9 |
| 20260510054136 | 48 | 20 | 1.7 | 1.7 | 0.00 | 0.00 | 0.01 | 99 | 1011.9 |
| 20260510053635 | 48 | 2 | 0.9 | 1.7 | 0.00 | 0.00 | 0.01 | 99 | 1011.9 |
| 20260510053137 | 48 | 0.0 | 0.0 | 0.00 | 0.00 | 0.01 | 99 | 1012.3 | |
| 20260510052635 | 48 | 0.0 | 0.0 | 0.00 | 0.00 | 0.01 | 99 | 1011.9 | |
| 20260510052237 | 48 | 0.0 | 0.0 | 0.00 | 0.00 | 0.01 | 99 | 1012.3 | |
| 20260510051634 | 48 | 0.0 | 0.0 | 0.00 | 0.00 | 0.01 | 99 | 1012.3 | |
| 20260510051133 | 48 | 0.0 | 0.0 | 0.00 | 0.00 | 0.01 | 99 | 1012.3 | |
| 20260510050632 | 48 | 347 | 0.0 | 0.9 | 0.00 | 0.00 | 0.01 | 99 | 1012.3 |
| 20260510050234 | 47 | 337 | 0.9 | 1.7 | 0.00 | 0.00 | 0.01 | 99 | 1012.3 |
| 20260510045636 | 47 | 356 | 0.0 | 0.9 | 0.00 | 0.00 | 0.01 | 99 | 1012.1 |
| 20260510045132 | 47 | 348 | 0.9 | 0.9 | 0.00 | 0.00 | 0.01 | 99 | 1012.3 |
| 20260510044631 | 47 | 14 | 0.9 | 1.7 | 0.00 | 0.00 | 0.01 | 99 | 1012.3 |
| 20260510044132 | 47 | 348 | 0.9 | 0.9 | 0.00 | 0.00 | 0.01 | 99 | 1012.4 |
| 20260510043632 | 47 | 351 | 0.9 | 0.9 | 0.00 | 0.00 | 0.01 | 99 | 1012.3 |
| 20260510043131 | 47 | 354 | 0.9 | 0.9 | 0.00 | 0.00 | 0.01 | 99 | 1012.3 |
| 20260510042630 | 47 | 41 | 1.7 | 2.6 | 0.00 | 0.00 | 0.00 | 99 | 1012.6 |
| 20260510042129 | 47 | 334 | 0.9 | 1.7 | 0.00 | 0.00 | 0.00 | 99 | 1012.3 |
| 20260510041630 | 47 | 16 | 1.7 | 1.7 | 0.00 | 0.00 | 0.00 | 99 | 1012.3 |
| 20260510041130 | 47 | 358 | 0.9 | 1.7 | 0.00 | 0.00 | 0.00 | 99 | 1012.6 |
| 20260510040629 | 47 | 347 | 0.9 | 0.9 | 0.00 | 0.00 | 0.00 | 99 | 1012.3 |
| 20260510040128 | 47 | 350 | 0.9 | 0.9 | 0.00 | 0.00 | 0.00 | 99 | 1012.3 |
| 20260510035730 | 47 | 35 | 1.7 | 2.6 | 0.00 | 0.00 | 0.48 | 99 | 1012.3 |
| 20260510035128 | 47 | 18 | 1.7 | 2.6 | 0.00 | 0.00 | 0.48 | 99 | 1012.6 |
| 20260510034628 | 47 | 11 | 0.9 | 1.7 | 0.00 | 0.00 | 0.48 | 99 | 1012.4 |
| 20260510034127 | 47 | 30 | 2.6 | 2.6 | 0.00 | 0.00 | 0.48 | 99 | 1012.6 |
| 20260510033628 | 47 | 81 | 3.5 | 4.3 | 0.00 | 0.00 | 0.48 | 99 | 1012.3 |
| 20260510033127 | 47 | 357 | 0.9 | 0.9 | 0.00 | 0.00 | 0.48 | 99 | 1012.6 |
| 20260510032626 | 47 | 31 | 1.7 | 2.6 | 0.00 | 0.00 | 0.48 | 99 | 1012.3 |
| 20260510032125 | 47 | 360 | 0.9 | 1.7 | 0.00 | 0.00 | 0.48 | 99 | 1012.3 |
| 20260510031625 | 47 | 302 | 1.7 | 2.6 | 0.00 | 0.00 | 0.48 | 99 | 1012.3 |
| 20260510031126 | 47 | 340 | 0.9 | 0.9 | 0.00 | 0.00 | 0.48 | 99 | 1012.6 |
| 20260510030625 | 47 | 51 | 2.6 | 2.6 | 0.00 | 0.00 | 0.48 | 99 | 1012.3 |
| 20260510030124 | 47 | 354 | 0.9 | 0.9 | 0.00 | 0.00 | 0.48 | 99 | 1012.6 |
| 20260510025625 | 47 | 341 | 0.9 | 0.9 | 0.00 | 0.00 | 0.48 | 99 | 1012.4 |
| 20260510025126 | 47 | 287 | 1.7 | 2.6 | 0.00 | 0.00 | 0.48 | 99 | 1012.3 |
| 20260510024626 | 47 | 63 | 1.7 | 2.6 | 0.00 | 0.00 | 0.48 | 99 | 1012.3 |
| 20260510023625 | 47 | 48 | 1.7 | 2.6 | 0.00 | 0.00 | 0.48 | 99 | 1012.6 |
| 20260510023124 | 47 | 32 | 1.7 | 1.7 | 0.00 | 0.00 | 0.48 | 99 | 1012.6 |
| 20260510022623 | 47 | 351 | 0.9 | 0.9 | 0.00 | 0.00 | 0.48 | 99 | 1013.0 |
| 20260510022122 | 47 | 14 | 1.7 | 2.6 | 0.00 | 0.00 | 0.48 | 99 | 1013.0 |
| 20260510021623 | 47 | 346 | 0.9 | 1.7 | 0.00 | 0.00 | 0.48 | 99 | 1013.0 |
| 20260510021122 | 47 | 15 | 1.7 | 2.6 | 0.00 | 0.00 | 0.48 | 99 | 1013.0 |
| 20260510020120 | 47 | 360 | 0.9 | 1.7 | 0.00 | 0.00 | 0.48 | 99 | 1013.0 |
| 20260510015622 | 47 | 345 | 0.9 | 0.9 | 0.00 | 0.00 | 0.48 | 99 | 1013.0 |
| 20260510015121 | 47 | 349 | 0.9 | 0.9 | 0.00 | 0.00 | 0.48 | 99 | 1013.0 |
| 20260510014620 | 47 | 347 | 0.9 | 0.9 | 0.00 | 0.00 | 0.48 | 99 | 1013.0 |
| 20260510013619 | 47 | 358 | 1.7 | 1.7 | 0.00 | 0.00 | 0.48 | 99 | 1013.0 |
| 20260510013120 | 47 | 350 | 0.9 | 0.9 | 0.00 | 0.00 | 0.48 | 99 | 1013.0 |
| 20260510012619 | 47 | 348 | 1.7 | 1.7 | 0.00 | 0.00 | 0.48 | 99 | 1013.0 |
| 20260510012118 | 47 | 65 | 2.6 | 5.2 | 0.00 | 0.00 | 0.48 | 99 | 1012.6 |
| 20260510011619 | 47 | 20 | 1.7 | 2.6 | 0.00 | 0.00 | 0.48 | 99 | 1013.0 |
| 20260510011118 | 47 | 356 | 0.9 | 0.9 | 0.00 | 0.00 | 0.48 | 99 | 1012.6 |
| 20260510010618 | 47 | 326 | 0.0 | 0.9 | 0.00 | 0.00 | 0.48 | 99 | 1013.0 |
| 20260510010220 | 47 | 326 | 1.7 | 1.7 | 0.00 | 0.00 | 0.48 | 99 | 1012.6 |
| 20260510005616 | 47 | 345 | 0.9 | 0.9 | 0.00 | 0.00 | 0.48 | 99 | 1012.6 |
| 20260510004646 | 47 | 342 | 0.9 | 1.7 | 0.00 | 0.00 | 0.48 | 99 | 1012.6 |
| 20260510004146 | 47 | 5 | 1.7 | 1.7 | 0.00 | 0.00 | 0.48 | 99 | 1012.6 |
| 20260510003646 | 47 | 46 | 1.7 | 2.6 | 0.00 | 0.00 | 0.48 | 99 | 1012.6 |
| 20260510003144 | 47 | 202 | 2.6 | 2.6 | 0.00 | 0.00 | 0.48 | 99 | 1012.6 |
| 20260510002647 | 47 | 349 | 0.9 | 1.7 | 0.00 | 0.00 | 0.48 | 99 | 1012.4 |
| 20260510002144 | 47 | 349 | 0.9 | 0.9 | 0.00 | 0.00 | 0.48 | 99 | 1012.3 |
| 20260510001643 | 47 | 128 | 3.5 | 4.3 | 0.00 | 0.00 | 0.48 | 99 | 1012.3 |
| 20260510001143 | 47 | 42 | 1.7 | 2.6 | 0.00 | 0.00 | 0.48 | 99 | 1012.3 |
| 20260510000645 | 47 | 193 | 3.5 | 5.2 | 0.00 | 0.00 | 0.48 | 99 | 1012.6 |
| 20260510000143 | 47 | 135 | 3.5 | 4.3 | 0.00 | 0.00 | 0.48 | 99 | 1012.3 |
| 20260509235644 | 47 | 294 | 1.7 | 2.6 | 0.00 | 0.00 | 0.48 | 99 | 1012.3 |
| 20260509235143 | 47 | 96 | 1.7 | 4.3 | 0.00 | 0.00 | 0.48 | 99 | 1012.3 |
| 20260509234646 | 46 | 48 | 1.7 | 2.6 | 0.00 | 0.00 | 0.48 | 99 | 1012.3 |
| 20260509234142 | 46 | 264 | 2.6 | 2.6 | 0.00 | 0.00 | 0.48 | 99 | 1012.3 |
| 20260509233641 | 46 | 303 | 0.9 | 1.7 | 0.00 | 0.00 | 0.48 | 99 | 1012.3 |
| 20260509233145 | 46 | 55 | 1.7 | 2.6 | 0.00 | 0.00 | 0.48 | 99 | 1012.3 |
| 20260509232646 | 46 | 6 | 1.7 | 1.7 | 0.00 | 0.00 | 0.48 | 99 | 1012.3 |
| 20260509232141 | 46 | 32 | 1.7 | 2.6 | 0.00 | 0.00 | 0.48 | 99 | 1012.3 |
| 20260509231640 | 46 | 34 | 1.7 | 2.6 | 0.00 | 0.00 | 0.48 | 99 | 1011.9 |
| 20260509230640 | 46 | 26 | 0.9 | 1.7 | 0.00 | 0.00 | 0.48 | 99 | 1012.3 |
| 20260509230241 | 46 | 341 | 1.7 | 2.6 | 0.00 | 0.00 | 0.48 | 99 | 1012.3 |
| 20260509225638 | 46 | 235 | 2.6 | 4.3 | 0.00 | 0.00 | 0.48 | 99 | 1012.3 |
| 20260509224657 | 46 | 89 | 2.6 | 5.2 | 0.00 | 0.00 | 0.48 | 99 | 1012.3 |
| 20260509223136 | 46 | 23 | 1.7 | 1.7 | 0.00 | 0.00 | 0.48 | 99 | 1012.3 |
| 20260509222638 | 46 | 319 | 0.9 | 1.7 | 0.00 | 0.00 | 0.48 | 99 | 1012.3 |
| 20260509222137 | 46 | 14 | 1.7 | 2.6 | 0.00 | 0.00 | 0.48 | 99 | 1012.3 |
| 20260509221135 | 46 | 342 | 0.9 | 1.7 | 0.00 | 0.00 | 0.48 | 99 | 1012.3 |
| 20260509220636 | 46 | 308 | 1.7 | 2.6 | 0.00 | 0.00 | 0.48 | 99 | 1012.3 |
| 20260509220135 | 46 | 99 | 3.5 | 6.1 | 0.00 | 0.00 | 0.48 | 99 | 1012.3 |
| 20260509215737 | 46 | 344 | 0.9 | 1.7 | 0.00 | 0.00 | 0.48 | 99 | 1012.3 |
| 20260509215134 | 46 | 134 | 3.5 | 6.1 | 0.00 | 0.00 | 0.48 | 99 | 1012.3 |
| 20260509214633 | 46 | 79 | 2.6 | 4.3 | 0.00 | 0.00 | 0.48 | 99 | 1012.4 |
| 20260509214134 | 46 | 140 | 3.5 | 5.2 | 0.00 | 0.00 | 0.48 | 99 | 1012.6 |
| 20260509213635 | 46 | 138 | 3.5 | 5.2 | 0.00 | 0.00 | 0.48 | 99 | 1012.6 |
| 20260509213133 | 45 | 88 | 2.6 | 4.3 | 0.00 | 0.00 | 0.48 | 99 | 1012.6 |
| 20260509212632 | 45 | 323 | 1.7 | 2.6 | 0.00 | 0.00 | 0.48 | 99 | 1012.6 |
| 20260509212134 | 45 | 304 | 1.7 | 2.6 | 0.00 | 0.00 | 0.48 | 99 | 1012.6 |
| 20260509211632 | 45 | 66 | 1.7 | 2.6 | 0.00 | 0.00 | 0.48 | 99 | 1012.8 |
| 20260509211131 | 45 | 257 | 1.7 | 1.7 | 0.00 | 0.00 | 0.48 | 99 | 1012.6 |
| 20260509210632 | 45 | 31 | 1.7 | 2.6 | 0.00 | 0.00 | 0.48 | 99 | 1012.6 |
| 20260509210132 | 45 | 63 | 2.6 | 2.6 | 0.00 | 0.00 | 0.48 | 99 | 1013.0 |
| 20260509205631 | 45 | 158 | 3.5 | 5.2 | 0.00 | 0.00 | 0.48 | 99 | 1013.0 |
| 20260509205130 | 45 | 113 | 2.6 | 4.3 | 0.00 | 0.00 | 0.48 | 99 | 1013.0 |
| 20260509204629 | 45 | 354 | 1.7 | 1.7 | 0.00 | 0.00 | 0.48 | 99 | 1013.0 |
| 20260509204130 | 45 | 55 | 1.7 | 2.6 | 0.00 | 0.00 | 0.48 | 99 | 1013.0 |
| 20260509203630 | 45 | 50 | 2.6 | 4.3 | 0.00 | 0.00 | 0.48 | 99 | 1013.3 |
| 20260509203129 | 45 | 169 | 3.5 | 4.3 | 0.00 | 0.00 | 0.47 | 99 | 1013.1 |
| 20260509202628 | 45 | 134 | 3.5 | 5.2 | 0.00 | 0.00 | 0.47 | 99 | 1013.3 |
| 20260509202132 | 45 | 166 | 5.2 | 6.1 | 0.00 | 0.00 | 0.46 | 99 | 1013.0 |
| 20260509201629 | 45 | 91 | 2.6 | 2.6 | 0.00 | 0.00 | 0.46 | 99 | 1013.0 |
| 20260509201128 | 45 | 169 | 4.3 | 6.1 | 0.00 | 0.00 | 0.46 | 99 | 1013.0 |
| 20260509200627 | 44 | 150 | 4.3 | 6.1 | 0.00 | 0.00 | 0.46 | 99 | 1013.0 |
| 20260509200126 | 45 | 22 | 1.7 | 2.6 | 0.00 | 0.00 | 0.45 | 99 | 1013.0 |
| 20260509195727 | 44 | 195 | 3.5 | 6.1 | 0.00 | 0.00 | 0.45 | 99 | 1013.0 |
| 20260509195127 | 44 | 112 | 2.6 | 4.3 | 0.00 | 0.00 | 0.45 | 99 | 1013.0 |
| 20260509194125 | 44 | 178 | 3.5 | 5.2 | 0.00 | 0.00 | 0.44 | 99 | 1013.1 |
| 20260509193626 | 44 | 32 | 2.6 | 2.6 | 0.00 | 0.00 | 0.43 | 99 | 1013.3 |
| 20260509193125 | 44 | 146 | 2.6 | 4.3 | 0.00 | 0.00 | 0.43 | 99 | 1013.3 |
| 20260509192624 | 44 | 152 | 3.5 | 4.3 | 0.00 | 0.00 | 0.42 | 99 | 1013.3 |
| 20260509192225 | 44 | 51 | 1.7 | 2.6 | 0.00 | 0.00 | 0.42 | 99 | 1013.3 |
| 20260509191624 | 44 | 147 | 3.5 | 5.2 | 0.00 | 0.00 | 0.41 | 99 | 1013.3 |
| 20260509191123 | 44 | 52 | 1.7 | 2.6 | 0.00 | 0.00 | 0.40 | 99 | 1013.7 |
| 20260509190622 | 44 | 131 | 4.3 | 6.1 | 0.00 | 0.00 | 0.39 | 99 | 1013.7 |
| 20260509190123 | 44 | 177 | 4.3 | 6.1 | 0.00 | 0.00 | 0.38 | 99 | 1013.7 |
| 20260509185622 | 44 | 131 | 4.3 | 7.0 | 0.00 | 0.00 | 0.38 | 99 | 1013.7 |
| 20260509184724 | 44 | 151 | 4.3 | 5.2 | 0.00 | 0.00 | 0.36 | 99 | 1013.7 |
| 20260509184122 | 44 | 120 | 3.5 | 4.3 | 0.00 | 0.00 | 0.35 | 99 | 1013.7 |
| 20260509183621 | 44 | 134 | 3.5 | 6.1 | 0.00 | 0.00 | 0.34 | 99 | 1013.7 |
| 20260509182622 | 44 | 209 | 2.6 | 4.3 | 0.00 | 0.00 | 0.33 | 99 | 1014.0 |
| 20260509182121 | 43 | 301 | 1.7 | 2.6 | 0.00 | 0.00 | 0.32 | 99 | 1014.0 |
| 20260509181620 | 43 | 125 | 4.3 | 6.1 | 0.00 | 0.00 | 0.32 | 99 | 1014.0 |
| 20260509181121 | 44 | 151 | 5.2 | 6.1 | 0.00 | 0.00 | 0.31 | 99 | 1014.0 |
| 20260509180618 | 44 | 143 | 3.5 | 5.2 | 0.00 | 0.00 | 0.31 | 99 | 1014.0 |
| 20260509180119 | 44 | 136 | 2.6 | 4.3 | 0.00 | 0.00 | 0.30 | 99 | 1014.0 |
| 20260509175619 | 43 | 152 | 4.3 | 6.1 | 0.00 | 0.00 | 0.29 | 99 | 1014.0 |
| 20260509175118 | 43 | 142 | 3.5 | 5.2 | 0.00 | 0.00 | 0.29 | 99 | 1014.2 |
| 20260509174622 | 43 | 155 | 4.3 | 7.0 | 0.00 | 0.00 | 0.28 | 99 | 1014.0 |
| 20260509174219 | 43 | 124 | 4.3 | 6.1 | 0.00 | 0.00 | 0.28 | 99 | 1014.0 |
| 20260509173618 | 43 | 189 | 4.3 | 6.1 | 0.00 | 0.00 | 0.27 | 99 | 1014.2 |
| 20260509173117 | 43 | 164 | 3.5 | 5.2 | 0.00 | 0.00 | 0.26 | 99 | 1014.2 |
| 20260509172118 | 43 | 298 | 2.6 | 2.6 | 0.00 | 0.00 | 0.25 | 99 | 1014.0 |
| 20260509171617 | 43 | 147 | 3.5 | 5.2 | 0.00 | 0.00 | 0.24 | 99 | 1014.4 |